Wind_Speed
25 25 25 25 24 23 23 22 22 21 21 22 22 21 20 19 19 18 17 17 18 19 17 16 14 15 17 16 13 12 11 11 12 11 12 17 21 17 10 7 6 6 6 7 10 9 10 8 10 16 13 5 1 1 2 1 2 3 2 2 2 2 2 2 3 3 1 3 4 3 2 6 3 1 0 2 5 4 4 5 3 5 6 1 3 11 25 29
25 25 25 26 24 24 23 22 22 22 22 22 22 22 21 20 20 19 18 17 18 19 18 17 15 14 16 15 12 11 10 12 14 16 21 22 20 19 17 14 11 7 6 8 8 6 5 5 10 14 7 2 1 1 1 1 1 2 2 2 3 4 3 4 3 2 2 4 4 3 2 4 5 4 2 2 1 2 5 3 4 5 6 5 9 19 26 27
25 25 25 25 24 24 24 23 22 22 22 22 22 22 22 21 20 19 18 17 18 19 19 18 17 14 14 15 12 8 9 12 13 17 25 24 22 21 19 18 16 13 11 9 8 5 3 5 8 7 2 1 2 0 1 1 1 2 3 1 5 5 4 4 2 2 4 3 5 2 2 2 3 4 2 3 4 3 5 2 1 2 2 5 8 17 24 24
25 25 25 25 25 24 25 24 23 22 22 23 23 22 22 22 20 20 18 17 18 19 19 18 17 15 13 14 13 9 5 8 8 14 27 26 23 23 21 20 17 15 14 11 10 8 6 6 6 3 0 2 2 1 1 3 2 2 3 4 5 4 3 5 4 3 2 2 6 2 2 2 3 2 2 6 6 2 5 6 7 8 9 9 7 14 21 21
24 24 24 24 24 24 25 25 23 22 22 23 22 21 22 22 21 20 19 18 18 18 18 18 17 16 13 12 14 11 5 3 4 12 26 27 24 23 22 22 18 16 15 12 10 7 7 5 3 1 1 1 2 2 3 5 2 1 3 6 5 3 3 6 5 3 1 4 4 3 3 2 1 1 3 8 6 5 6 7 9 10 12 14 12 15 17 17
24 23 24 24 24 24 24 25 24 23 23 22 22 21 22 23 22 22 20 19 19 18 18 19 18 17 15 12 14 14 10 4 1 5 15 23 26 25 23 23 20 18 15 12 8 4 3 2 3 0 0 1 2 2 4 4 3 3 3 3 6 5 4 4 2 3 2 5 3 2 2 0 2 1 3 7 6 6 6 7 8 9 14 17 16 15 14 14
24 23 23 24 24 24 23 24 25 24 24 23 23 22 22 23 23 23 21 19 19 18 19 20 20 19 16 14 14 13 9 8 2 5 2 13 26 27 25 25 22 21 17 12 8 3 1 2 1 2 1 1 3 4 5 3 2 4 4 3 6 6 6 6 4 4 3 6 4 3 2 1 2 2 1 4 7 7 6 3 3 10 15 16 14 13 14 16
24 23 23 24 25 24 22 23 24 25 25 24 22 22 22 22 23 24 22 21 20 19 19 20 21 20 19 16 11 7 8 14 11 2 6 3 18 25 25 25 24 21 18 15 13 7 4 3 4 3 1 3 3 3 3 1 0 4 6 4 3 4 6 7 5 5 5 5 4 4 2 4 5 3 1 5 8 7 6 3 2 9 13 12 12 13 13 14
22 23 23 23 25 24 22 23 24 25 24 24 22 22 22 21 23 24 22 21 20 21 20 21 22 21 23 16 7 7 12 22 25 8 6 5 6 18 23 24 25 22 19 18 16 11 6 4 5 4 3 4 3 2 2 1 2 5 6 3 2 4 5 3 4 7 7 4 4 5 4 6 4 2 2 7 8 5 3 3 4 9 11 10 11 12 12 12
22 22 22 23 24 25 24 24 25 24 24 24 23 23 22 21 23 23 23 22 20 21 20 21 22 22 24 14 6 9 9 18 32 20 3 5 3 14 22 23 24 23 18 15 15 12 7 7 6 4 3 2 2 3 2 3 3 3 3 2 3 5 6 1 4 7 4 3 6 7 6 6 3 2 3 7 6 3 5 5 5 8 11 12 10 11 13 13
23 22 22 22 23 25 25 24 24 25 25 24 23 23 21 21 23 23 23 21 20 21 20 20 21 24 24 13 8 10 4 10 26 28 17 7 5 13 20 24 24 24 18 12 14 15 12 12 6 3 2 2 2 4 3 4 3 3 2 3 5 5 6 3 4 5 2 2 6 8 5 4 2 2 5 7 4 4 7 6 6 7 9 11 11 11 11 13
23 23 22 21 22 24 25 24 23 24 24 24 24 23 20 21 23 24 23 22 21 20 20 19 20 25 21 10 12 11 6 10 14 22 27 21 15 13 15 20 22 24 21 14 15 19 19 15 5 3 3 2 1 3 4 3 1 3 1 3 7 5 5 5 4 4 5 4 6 7 1 4 4 6 7 7 5 3 4 6 7 8 8 9 10 9 9 14
21 22 22 22 21 22 25 25 23 23 23 24 25 23 21 21 21 23 23 22 21 19 19 19 19 23 15 5 13 17 13 13 10 14 23 22 20 17 17 19 19 21 22 19 19 22 24 19 7 4 3 0 2 3 2 2 1 3 2 2 4 5 5 6 4 4 6 5 6 7 2 6 8 9 8 7 7 5 6 7 7 7 7 7 8 8 9 13
17 18 20 21 20 21 23 25 25 24 23 23 24 24 22 21 20 22 22 21 21 20 19 18 18 20 14 4 7 19 23 17 12 12 14 15 16 18 20 23 21 21 22 22 18 19 23 18 7 2 2 2 3 5 5 4 2 1 2 2 3 4 5 6 5 7 6 4 7 8 5 7 8 10 9 7 7 7 8 9 7 7 7 7 7 8 9 11
14 15 17 18 19 20 21 24 26 26 23 22 22 22 21 20 21 20 20 21 21 21 18 17 20 16 7 4 4 15 26 22 16 13 11 12 14 16 20 25 25 23 24 21 12 10 15 12 5 2 3 2 2 4 4 3 3 0 3 3 4 5 5 5 5 10 9 3 5 8 5 6 8 9 9 8 7 7 10 11 8 7 8 7 8 8 8 10
11 13 15 16 18 18 20 22 24 25 23 22 21 20 20 19 20 20 19 21 20 20 17 15 21 14 1 3 7 11 18 22 23 16 12 14 14 15 20 24 23 24 23 18 11 9 9 7 3 1 2 2 3 4 1 3 3 2 5 5 4 6 4 3 5 7 10 4 4 7 4 4 7 8 9 8 7 8 9 10 9 8 8 8 8 8 8 9
10 10 11 14 15 16 18 18 20 22 21 21 20 18 18 16 16 17 18 19 17 16 13 8 11 8 3 2 5 8 13 19 25 23 18 17 14 13 18 18 15 18 17 11 11 7 4 4 2 1 2 3 3 5 3 6 8 5 4 4 4 5 5 4 4 5 7 5 5 8 6 6 7 7 7 6 7 8 8 10 10 8 8 9 8 8 9 9
9 9 10 11 14 16 16 17 17 17 18 20 20 18 18 15 13 13 13 12 8 5 5 4 5 4 6 8 6 6 13 18 23 27 25 19 14 14 17 12 9 14 11 6 7 6 1 1 3 3 3 5 4 6 10 11 9 7 6 5 5 5 6 6 4 4 6 5 6 8 8 9 12 10 7 7 6 7 9 10 9 9 9 10 9 9 9 9
7 8 9 10 12 14 15 18 17 14 16 17 17 17 16 12 7 8 10 9 5 3 2 4 9 5 3 8 10 6 12 20 23 27 29 22 16 15 13 5 5 11 9 5 8 8 5 2 3 5 6 9 11 12 14 8 7 11 10 7 7 6 5 5 4 5 7 7 8 10 9 9 13 14 10 9 7 7 9 8 6 8 8 9 9 9 9 9
6 7 9 9 11 12 13 16 18 16 15 14 15 13 8 7 3 4 6 7 7 6 2 3 9 7 3 2 6 8 11 18 17 19 26 24 15 11 7 1 2 7 8 8 9 9 9 6 6 8 9 13 15 16 14 6 5 9 9 7 8 7 6 5 5 6 5 6 8 10 11 11 13 16 14 11 10 9 10 9 7 7 7 8 9 10 10 10
7 6 8 9 10 11 11 14 16 16 15 16 17 9 3 6 5 3 4 3 8 9 5 1 5 8 3 4 3 8 7 10 9 10 22 24 17 11 5 3 3 5 9 9 5 5 9 11 12 11 11 10 12 15 13 10 7 5 6 8 9 8 8 5 6 7 4 5 6 7 10 11 12 14 14 11 11 11 11 12 11 9 9 8 8 11 11 8
7 5 7 9 10 11 12 12 13 14 13 16 15 5 1 5 3 2 5 2 5 8 8 5 4 8 6 4 1 3 3 7 8 7 18 20 14 10 6 5 6 6 10 10 5 4 8 13 18 17 12 7 7 11 14 15 12 6 4 6 6 6 4 4 5 6 4 4 6 7 9 11 11 14 15 14 12 11 12 13 12 11 11 10 9 9 10 8
9 7 7 8 10 11 11 11 12 14 15 16 14 6 1 5 4 2 5 2 3 5 7 9 7 7 7 5 3 4 1 6 9 9 19 19 11 10 7 6 9 7 9 12 11 9 8 14 23 21 15 12 9 8 12 14 11 10 7 6 6 4 4 5 4 4 5 6 5 5 8 10 9 11 14 14 11 9 11 13 12 11 11 12 12 10 10 11
11 10 9 9 11 11 10 9 11 14 17 17 17 14 6 4 5 2 2 1 3 3 6 11 10 7 7 6 4 5 2 3 5 8 18 18 8 8 9 8 10 9 8 11 14 14 13 15 17 17 16 16 14 10 11 11 9 12 11 10 8 5 6 6 4 3 6 8 5 2 6 8 8 10 12 11 8 8 10 11 11 11 11 11 10 10 11 12
13 13 12 11 12 11 11 9 9 13 15 14 16 18 11 2 3 5 1 2 2 3 2 7 6 7 10 7 4 5 3 4 5 8 15 17 12 8 7 7 7 11 12 12 12 12 15 12 11 15 17 17 17 13 12 11 8 11 12 14 12 7 7 7 5 4 4 7 5 4 6 8 6 11 13 10 9 10 9 11 14 12 11 10 9 11 11 11
16 16 14 14 13 11 11 7 9 14 14 10 13 18 15 4 5 8 4 2 4 2 3 5 4 9 13 9 6 5 4 7 7 12 16 18 17 10 7 6 4 11 14 10 8 5 10 10 12 17 18 17 17 14 15 15 9 9 10 13 13 9 9 9 8 6 5 7 4 5 8 8 3 9 12 12 14 15 10 11 15 13 10 10 10 10 10 10
19 19 17 17 16 15 11 5 10 14 9 6 12 18 16 7 7 7 3 1 4 3 6 5 5 9 12 13 14 7 5 5 7 12 16 17 14 6 8 10 6 9 9 5 5 3 7 12 13 16 17 15 14 13 18 17 11 12 8 10 13 13 15 13 9 7 6 4 4 2 6 8 7 7 10 12 15 17 14 12 13 12 11 12 11 11 11 11
20 21 20 20 20 20 13 9 14 13 6 7 13 19 17 12 10 6 2 3 4 3 4 6 8 4 4 12 19 10 5 3 6 10 17 22 16 2 5 12 12 12 10 9 10 6 8 14 16 17 15 12 14 16 18 17 14 13 8 11 14 16 16 12 8 8 5 1 5 5 3 7 11 6 7 11 14 17 18 16 14 13 13 14 14 14 12 13
20 23 23 23 21 21 16 13 14 12 10 12 16 22 21 15 9 5 1 4 2 1 1 6 9 4 3 9 15 14 8 2 3 6 13 18 15 4 3 9 12 13 10 10 13 9 5 9 14 16 13 11 14 14 14 16 15 8 11 13 11 10 10 9 8 7 3 3 11 10 6 7 12 6 9 9 12 16 16 14 14 14 14 15 14 14 13 13
21 24 26 25 22 22 18 12 12 12 12 15 20 26 23 12 5 2 6 4 1 1 1 3 6 7 11 10 9 15 15 6 2 4 9 10 9 6 2 2 5 7 8 8 11 11 5 2 3 8 10 12 14 12 12 17 12 6 10 8 2 1 3 5 6 4 3 6 12 15 14 11 13 8 9 9 11 14 13 12 12 12 13 13 12 12 12 12
21 25 28 27 25 24 17 9 11 13 15 21 26 26 16 5 1 4 7 2 2 2 1 1 4 7 15 14 9 12 15 9 4 6 8 7 8 8 4 1 3 4 7 7 9 12 11 6 0 2 6 9 11 10 11 13 10 7 7 6 2 0 1 2 1 3 5 7 11 18 16 13 14 10 7 8 11 13 13 12 12 12 13 12 11 11 12 13
20 26 30 29 27 25 18 13 15 16 20 28 25 15 7 2 3 4 3 3 2 3 2 4 6 6 12 15 11 11 13 10 8 10 10 8 7 8 9 8 7 6 7 7 8 10 12 12 7 3 4 8 9 8 7 7 7 5 5 7 6 4 3 3 3 4 6 8 10 13 12 11 15 13 7 6 7 10 13 12 13 15 15 13 13 15 14 12
19 26 30 30 27 24 21 20 19 18 26 30 17 5 3 4 5 6 5 1 1 3 1 2 7 7 10 12 10 12 13 11 11 12 11 11 8 9 14 14 11 8 5 7 10 7 8 12 10 5 2 8 11 9 7 6 8 8 8 9 10 7 5 7 7 5 6 8 9 8 7 8 11 11 12 11 8 9 12 11 13 15 16 16 16 15 12 8
18 26 31 30 28 24 22 23 21 21 27 23 9 4 5 4 4 8 9 5 2 2 1 1 5 8 10 10 9 10 10 9 12 12 11 12 8 8 12 14 15 9 2 6 9 7 10 10 10 12 6 9 14 13 11 9 9 12 11 9 10 8 7 7 8 8 7 5 4 6 6 6 7 5 7 14 14 11 9 10 11 11 13 13 11 9 8 8
17 26 30 28 27 25 24 24 24 26 25 13 5 6 7 5 4 5 7 7 2 1 1 2 2 6 9 8 8 9 8 7 11 11 10 11 9 9 10 11 17 14 5 6 5 7 14 9 9 17 13 13 17 14 10 9 6 8 8 8 10 10 8 4 4 7 6 3 2 4 4 4 4 5 5 6 11 12 11 10 11 11 11 10 9 9 9 9
15 21 25 25 26 27 27 26 28 29 21 7 5 7 7 6 5 3 4 7 5 3 0 2 1 5 7 6 5 9 9 5 9 10 9 11 11 13 12 7 13 16 9 7 3 4 11 8 9 17 15 16 18 14 12 11 7 5 8 10 8 7 7 4 4 1 3 5 6 5 6 5 4 9 8 5 4 11 15 12 12 13 12 10 10 10 10 9
16 19 19 20 26 31 30 28 32 28 14 4 6 6 3 4 5 4 3 4 5 5 3 1 2 4 5 4 5 9 8 4 7 9 7 9 9 12 14 8 9 15 13 9 5 2 4 5 6 14 17 17 14 13 14 12 7 5 9 9 3 1 3 3 4 3 3 7 6 8 12 10 6 8 8 9 7 11 16 15 14 14 11 10 10 10 10 11
20 17 14 18 28 33 31 32 33 21 7 4 8 7 2 2 4 4 4 3 3 5 4 3 3 3 3 4 5 8 9 6 8 9 7 7 6 11 16 10 8 16 16 11 5 2 2 2 4 10 16 13 8 8 11 9 3 1 5 7 5 3 4 4 5 5 6 7 5 10 14 11 10 9 6 10 14 13 13 14 16 15 13 12 11 11 13 13
19 12 6 18 33 35 35 35 26 12 4 5 9 7 4 4 5 4 4 4 2 3 5 5 4 3 3 3 2 4 8 9 9 8 7 7 5 10 17 12 8 15 18 14 7 2 2 3 4 6 9 10 7 6 9 9 4 2 2 3 3 4 6 7 6 5 7 8 6 9 11 6 9 12 10 12 15 13 12 12 14 16 17 16 14 14 15 13
12 5 4 22 36 36 38 31 15 6 5 7 8 6 4 4 5 5 5 4 1 2 4 6 5 4 4 3 2 2 4 8 9 8 7 7 6 8 14 13 10 12 16 17 12 4 2 4 4 2 2 7 7 7 12 13 8 4 4 7 7 5 3 3 6 6 7 8 6 8 9 6 5 9 12 12 11 11 13 13 13 14 16 17 17 16 14 10
7 1 4 25 39 37 32 18 6 6 6 5 6 6 5 4 3 4 4 4 2 0 2 4 5 5 5 4 3 3 3 3 6 6 5 7 7 6 9 13 12 12 13 14 13 9 4 3 5 3 2 7 9 10 15 16 14 11 9 10 11 10 5 4 7 6 5 6 5 6 9 7 4 6 10 11 10 11 14 15 13 13 16 16 16 15 13 10
6 1 6 27 41 36 21 6 3 6 5 5 4 3 5 4 2 2 2 3 4 2 1 2 3 4 4 4 3 4 4 2 4 5 4 6 10 8 8 13 15 13 12 11 13 13 6 3 7 7 5 8 9 6 5 8 14 16 13 11 11 9 7 8 8 4 3 5 3 3 8 7 4 6 9 11 12 12 14 15 13 13 14 14 14 13 12 9
5 1 8 32 44 33 13 5 6 5 6 5 2 3 4 3 3 3 3 5 5 3 2 1 3 5 5 4 3 4 5 4 6 7 4 4 9 9 7 11 14 13 11 9 10 10 6 3 6 7 5 6 7 4 5 5 7 13 13 12 11 9 9 9 7 3 4 8 7 6 8 6 4 5 7 9 9 9 9 11 11 11 11 11 14 13 10 8
3 2 5 23 37 28 9 6 8 7 7 6 3 6 5 3 4 5 6 7 6 4 4 3 3 5 5 3 3 5 6 4 5 8 7 4 4 7 7 7 12 13 10 9 9 8 6 5 6 7 6 5 6 6 4 3 3 7 10 12 13 13 12 8 3 2 5 10 13 10 7 7 5 4 5 6 6 7 7 8 9 10 9 10 11 10 8 7
2 3 2 4 15 16 6 3 6 8 9 8 7 8 6 4 5 7 8 8 6 5 4 4 4 4 3 3 2 3 5 5 4 4 5 4 3 6 6 6 10 11 10 11 13 10 8 8 9 10 10 8 9 9 9 7 4 4 8 13 15 17 18 12 6 7 7 8 11 11 8 6 4 4 5 6 6 7 9 9 9 10 11 11 10 9 7 7
1 3 1 3 1 4 5 1 2 5 7 8 7 7 9 8 5 5 7 6 6 6 5 3 4 4 3 5 4 3 5 7 5 4 4 3 3 5 3 2 5 10 13 14 13 9 4 7 12 15 15 14 13 9 6 7 7 6 9 14 16 19 21 16 10 11 8 6 10 10 5 4 7 10 9 6 7 9 10 9 9 10 11 10 9 9 8 8
0 2 3 2 1 2 4 3 3 4 6 7 5 4 11 13 5 2 7 7 6 7 5 2 3 5 6 8 7 6 6 7 6 5 6 6 5 5 4 2 3 9 14 14 12 8 3 7 15 18 18 18 16 10 5 6 8 10 13 17 17 18 20 18 15 14 10 9 12 10 8 9 13 17 15 8 8 10 9 9 9 10 11 10 9 9 9 10
1 1 1 1 0 3 5 6 6 5 6 8 5 2 7 11 8 6 7 5 3 6 5 3 5 11 11 10 8 7 6 6 7 8 7 7 7 5 4 4 6 7 7 8 9 8 5 9 14 17 19 20 19 17 12 8 9 11 15 18 19 20 21 21 20 19 16 13 13 12 15 17 16 18 17 10 9 9 8 9 9 9 10 10 9 9 10 11
1 1 1 2 1 4 5 5 8 7 8 9 7 6 7 9 12 11 5 2 2 7 9 8 11 15 13 10 9 8 7 7 8 10 8 8 8 6 4 5 5 5 4 4 6 4 5 10 15 16 18 21 22 22 20 17 14 13 15 17 19 21 24 24 22 22 22 19 16 14 17 17 15 17 18 12 9 9 6 5 6 8 9 8 9 11 12 13
1 1 1 2 1 3 3 5 9 9 9 8 9 9 9 10 13 11 4 5 8 7 7 13 17 13 11 11 10 11 12 11 12 11 8 8 8 6 5 6 4 3 5 3 3 2 2 7 13 12 12 17 19 19 20 20 18 19 19 17 16 18 20 22 22 20 20 20 19 18 17 14 10 12 14 10 7 8 7 6 6 7 8 9 10 12 13 14
3 4 2 1 1 2 3 4 6 8 8 9 11 8 8 11 10 7 5 8 11 8 8 16 19 9 6 9 11 16 17 14 16 15 9 8 7 5 4 5 4 3 3 3 2 2 2 3 6 9 9 11 14 17 20 19 18 22 23 20 17 16 15 17 18 18 19 19 20 19 16 11 9 10 11 8 7 10 12 10 8 8 9 11 13 13 14 15
6 5 2 1 2 2 3 3 5 6 6 7 10 8 8 10 6 6 5 6 10 13 11 13 14 7 5 9 15 20 19 15 16 12 5 5 6 4 5 5 6 6 4 4 3 1 2 2 4 6 7 9 14 16 16 15 15 16 17 18 18 18 17 17 17 20 21 19 16 16 15 14 13 13 12 11 10 11 12 12 11 11 11 11 13 14 14 14
Wind_Direction
246 245 244 242 240 239 239 238 236 235 233 231 229 227 226 228 229 230 232 230 226 225 227 230 231 231 230 227 222 226 229 224 232 229 225 234 236 237 232 226 227 241 267 302 309 309 320 333 352 355 356 348 314 236 278 225 95 64 89 122 200 203 203 218 239 252 188 219 215 225 183 129 152 235 116 32 50 77 81 43 14 15 15 116 164 155 160 165
246 243 243 242 239 238 237 236 236 234 232 231 229 226 224 225 227 227 228 230 226 222 223 224 227 228 226 224 218 222 232 234 235 232 235 238 239 240 236 232 229 236 259 290 313 343 351 342 346 349 356 356 302 307 318 282 108 119 130 144 219 204 216 243 245 253 217 209 193 198 179 146 173 171 130 123 131 108 99 28 8 45 27 62 120 140 153 163
245 241 240 242 238 237 237 234 234 233 231 230 230 226 223 223 225 226 225 227 227 223 222 222 224 226 226 223 216 216 230 243 244 239 242 242 241 240 235 235 231 233 245 263 283 315 344 326 333 341 352 303 282 265 23 282 246 166 142 186 241 220 242 279 270 253 256 197 150 196 185 145 204 166 141 154 151 153 153 175 102 126 169 134 133 142 154 165
244 240 238 240 238 236 237 234 232 233 231 229 230 227 223 221 221 224 222 222 226 224 222 221 220 223 226 221 217 211 218 257 252 240 244 241 238 237 232 232 229 228 234 244 259 273 305 325 329 327 260 283 303 59 170 244 233 185 157 184 229 213 234 272 256 243 286 121 133 161 107 131 224 165 145 143 132 245 232 209 190 185 177 165 164 156 160 168
241 240 237 239 239 234 234 234 231 230 230 228 228 228 224 221 220 222 220 218 223 223 220 220 218 217 217 212 212 195 152 265 239 227 242 241 238 237 229 227 223 221 224 233 250 265 290 320 357 328 275 254 301 59 225 239 159 181 206 192 209 164 204 258 255 237 92 73 81 83 109 175 229 124 155 148 152 231 230 218 206 183 169 170 171 166 167 172
239 239 238 239 239 234 232 232 231 229 228 227 226 227 225 222 219 221 220 217 220 221 218 220 217 210 207 200 198 185 171 227 175 176 229 234 235 234 227 223 216 213 217 223 238 262 286 340 28 311 215 227 220 188 242 261 144 221 261 205 218 190 202 241 233 250 123 86 71 130 179 153 58 269 183 162 189 225 222 216 206 181 171 170 166 166 172 178
240 237 238 238 236 231 231 230 228 229 228 225 224 224 225 222 218 219 219 217 220 217 213 218 214 205 200 189 187 189 199 235 200 100 186 228 227 225 222 218 209 207 207 208 212 215 133 90 69 219 173 236 212 206 244 283 157 218 254 234 229 211 214 218 197 233 159 138 188 170 124 108 164 226 156 193 231 243 252 271 198 170 164 162 162 174 182 185
240 237 234 236 234 228 230 232 227 227 228 224 221 222 223 222 219 218 218 218 220 215 210 214 211 201 195 183 177 202 224 223 210 121 38 249 218 213 212 207 203 203 199 203 201 185 160 150 201 207 201 232 203 210 244 317 219 217 232 235 227 217 232 230 200 205 189 177 183 139 150 219 204 183 149 238 252 251 244 350 65 150 150 161 174 183 189 190
241 238 233 232 231 227 227 231 228 225 227 223 218 220 221 221 220 218 217 217 221 218 210 212 212 200 193 182 163 222 231 219 216 215 50 61 181 196 200 195 195 197 193 204 206 190 178 182 206 200 205 229 212 234 229 146 235 221 218 235 260 263 269 244 197 206 202 187 162 156 220 249 230 186 254 245 242 242 193 100 108 145 150 175 184 187 193 195
240 240 236 231 228 225 223 227 227 223 225 223 215 217 219 217 218 218 217 216 220 220 211 212 214 199 189 175 163 220 234 220 219 219 155 66 125 177 188 192 193 194 190 195 198 190 186 199 201 179 195 245 251 253 212 171 227 238 210 253 263 269 287 227 206 233 222 202 182 181 230 260 272 224 246 258 243 183 134 138 150 154 166 184 187 192 197 200
239 238 238 234 228 224 221 222 224 221 221 220 214 215 217 216 214 214 215 216 218 219 212 210 210 197 186 174 192 216 205 210 221 222 220 234 216 180 185 194 194 193 189 184 196 198 204 214 194 135 196 244 263 289 280 205 233 288 272 290 278 277 291 243 223 245 219 236 194 174 224 268 321 232 225 254 250 150 149 172 180 179 187 189 191 195 196 206
239 236 235 237 233 224 219 221 221 220 221 217 213 212 214 216 215 213 214 215 216 216 212 210 208 198 186 184 212 208 189 210 218 219 224 233 231 213 197 198 198 199 194 184 201 207 211 222 196 152 225 233 246 287 284 224 196 278 257 288 290 308 295 247 226 216 186 218 186 150 269 273 237 231 226 242 247 191 179 193 193 201 206 198 196 198 200 210
240 236 233 234 235 227 221 219 217 218 219 216 212 209 211 214 215 213 213 215 216 213 210 210 212 201 190 212 220 205 203 214 207 207 220 230 232 227 216 213 212 213 210 202 210 214 212 216 195 180 234 106 222 253 300 350 23 253 204 192 275 300 279 241 217 179 183 208 166 147 254 256 237 239 234 236 238 238 250 238 213 208 212 210 205 203 210 214
238 235 229 228 231 230 224 219 216 216 216 215 211 208 209 212 214 211 210 215 215 213 209 203 206 202 199 230 220 210 212 214 212 208 215 221 217 211 209 209 209 214 220 218 222 220 210 206 186 177 259 183 241 306 342 354 359 257 245 206 204 244 266 251 208 159 177 220 159 159 232 250 247 249 242 236 225 221 243 247 229 219 218 213 213 211 217 218
236 233 228 225 225 226 225 221 218 216 214 212 211 207 205 210 213 209 211 215 213 213 207 196 202 201 207 239 214 216 217 220 224 208 206 213 196 192 195 196 201 210 218 222 221 202 190 186 169 176 251 215 219 299 326 333 339 103 226 235 195 215 260 275 227 166 176 226 165 170 221 254 254 250 242 232 218 213 234 247 238 231 228 214 217 216 219 224
231 230 227 223 219 219 221 221 217 213 209 209 212 207 203 207 210 208 214 217 216 214 199 193 207 204 247 228 181 193 205 217 222 204 199 210 195 192 191 189 198 203 205 209 194 160 142 142 146 201 223 203 170 195 288 321 286 232 210 226 206 205 222 270 267 196 183 179 184 204 217 248 257 249 241 230 213 214 233 249 246 237 236 224 220 219 219 226
224 223 223 218 214 211 213 220 216 209 203 202 207 206 203 205 209 213 216 217 224 219 203 202 205 200 288 246 158 180 191 202 209 201 203 211 207 197 184 182 190 186 179 177 173 159 110 121 143 279 190 193 168 152 200 234 230 230 221 231 226 199 194 199 256 233 191 171 200 225 228 232 254 256 250 245 216 213 231 246 247 237 235 232 226 224 223 222
226 218 214 213 212 206 206 212 211 210 206 198 198 202 201 197 205 215 208 208 218 213 228 241 160 159 255 234 201 204 191 183 188 195 203 211 216 199 181 179 179 164 150 148 168 160 130 148 169 204 183 195 192 167 206 220 209 211 212 224 235 216 206 194 218 224 187 196 212 218 231 236 253 261 252 250 214 201 229 239 245 242 234 234 230 226 226 223
233 217 211 208 208 207 205 204 200 205 210 199 192 194 191 184 200 219 199 188 180 164 219 202 173 174 275 224 204 193 186 180 182 191 198 204 209 198 185 184 176 166 160 175 184 166 153 139 187 205 195 197 203 201 211 203 170 204 213 220 230 225 231 208 227 239 189 205 227 219 228 228 242 252 244 246 229 207 234 245 252 253 240 237 235 231 231 229
244 216 210 205 202 203 199 197 197 201 204 186 173 172 166 156 162 234 203 187 203 226 259 162 193 210 5 353 181 156 170 182 184 187 190 191 182 174 177 170 197 189 182 180 182 167 156 181 215 213 208 204 205 210 219 214 172 201 209 221 227 225 243 214 221 260 196 198 236 224 229 224 229 245 240 238 240 233 245 251 248 247 244 238 234 235 233 231
250 219 207 202 199 200 192 192 195 197 201 186 168 158 158 163 160 196 184 200 231 242 279 287 227 238 276 6 124 140 142 175 192 182 182 181 161 155 169 166 199 207 194 180 159 144 163 197 218 214 215 212 209 209 217 232 226 199 192 217 228 221 239 229 218 252 208 196 246 230 237 236 227 243 244 234 235 236 238 242 242 238 240 240 233 238 236 236
254 233 209 198 192 194 191 190 190 186 192 190 177 165 222 178 149 111 147 182 246 229 249 260 270 278 281 331 305 180 107 164 193 183 176 174 164 178 182 166 197 204 193 179 139 153 183 207 214 208 207 209 213 209 210 224 228 223 202 211 231 215 233 267 242 244 216 215 247 229 241 247 232 238 244 235 226 228 230 231 233 230 233 239 234 238 242 247
249 237 217 200 187 188 186 186 185 180 180 181 184 188 175 179 173 84 130 164 262 210 219 230 234 258 263 289 271 215 156 169 186 188 180 174 170 191 183 174 202 208 199 186 176 185 194 211 212 205 201 202 210 208 212 222 222 227 222 213 232 186 171 242 253 250 235 231 236 223 243 251 237 239 247 242 228 223 232 231 231 229 228 235 234 233 238 240
243 233 222 205 192 186 177 175 173 178 181 179 189 191 165 177 200 199 113 142 264 230 205 212 220 234 228 242 230 185 199 194 184 192 185 177 165 178 186 189 200 213 222 207 197 199 209 216 207 202 204 206 211 208 212 223 220 223 221 219 228 182 181 223 232 245 252 246 233 210 269 261 225 229 246 249 232 218 228 231 236 238 232 237 242 240 238 236
236 229 220 209 206 189 166 166 170 180 181 179 196 193 177 176 180 178 119 44 272 296 240 201 209 230 213 206 196 169 191 220 196 188 185 185 174 162 191 196 193 215 221 222 216 212 222 214 174 194 207 204 210 211 210 216 225 229 220 219 222 195 202 222 207 218 253 256 230 168 255 266 204 210 230 236 235 226 216 220 229 235 235 235 240 241 241 241
231 225 216 207 213 190 161 166 184 182 176 185 205 191 184 191 126 145 126 23 268 262 186 174 165 202 197 174 148 137 203 216 189 177 183 195 189 171 190 186 186 221 212 217 231 223 227 207 168 194 205 200 208 213 209 207 222 238 212 206 216 205 212 218 204 206 216 247 255 174 228 264 219 209 218 216 232 235 216 214 225 226 229 229 229 233 236 241
232 224 211 204 207 187 167 179 182 174 170 201 204 186 187 186 134 133 127 234 249 160 153 186 182 185 185 165 148 147 217 188 151 173 184 199 203 194 204 186 180 218 198 196 231 197 198 198 185 194 198 200 206 211 209 196 208 238 202 174 200 207 216 215 204 219 226 256 302 213 218 264 261 225 212 204 221 238 229 219 225 223 227 230 230 229 227 233
232 224 209 203 204 193 186 179 167 167 172 180 184 183 183 167 136 115 110 215 223 149 146 194 193 172 162 158 155 174 239 130 136 187 183 190 200 217 226 198 195 206 185 183 214 204 184 195 194 192 193 202 207 211 206 188 208 234 176 162 202 210 214 210 200 227 244 283 262 237 174 262 261 219 195 205 210 230 234 225 223 221 225 230 233 233 231 233
231 220 210 203 201 199 199 185 171 177 174 161 172 177 169 153 132 102 173 228 235 225 198 184 185 162 130 158 165 189 217 145 160 186 166 181 193 183 239 211 205 211 195 196 219 222 204 203 202 196 195 206 212 212 198 191 212 212 150 171 207 208 207 205 206 221 215 211 236 228 177 234 264 217 178 206 208 219 231 229 225 222 224 231 234 237 239 239
227 216 210 201 196 195 193 187 185 180 166 163 168 163 150 135 112 131 213 221 77 198 234 177 194 170 156 165 177 192 200 191 147 156 160 172 177 171 247 241 193 214 213 215 231 236 250 283 216 209 208 207 208 203 195 199 201 138 135 172 187 112 212 224 222 205 195 223 231 226 202 210 259 242 183 204 209 207 220 226 228 228 227 234 234 234 237 238
225 213 206 199 196 191 181 173 179 173 170 168 158 145 130 104 104 188 212 236 18 232 181 140 216 176 163 173 182 186 195 196 162 165 179 183 177 168 179 200 150 202 216 213 232 239 248 259 225 242 227 202 196 195 198 201 184 138 151 173 148 14 300 299 257 188 215 228 222 225 214 205 242 247 186 204 211 200 207 214 218 223 223 227 230 229 231 232
223 211 204 199 197 190 181 172 169 172 171 160 148 134 123 161 196 206 237 11 9 231 177 172 203 188 175 183 186 178 185 192 183 183 183 189 204 186 186 191 169 189 208 199 211 224 237 233 199 193 224 193 184 186 195 193 178 176 173 174 193 203 195 208 205 204 223 233 227 221 208 209 241 248 220 223 226 208 209 207 208 216 221 223 227 232 234 234
221 209 201 198 194 187 184 178 171 172 161 149 140 124 149 193 195 197 224 302 205 230 256 194 196 184 176 184 190 180 183 189 183 188 189 189 209 208 200 199 189 196 194 188 205 209 233 235 209 194 219 194 193 187 188 183 177 190 181 180 197 191 193 212 211 216 220 232 237 207 183 217 247 249 227 220 220 217 218 215 212 217 223 225 226 233 243 243
219 207 199 194 191 187 183 180 177 166 153 146 143 145 165 219 199 182 204 224 212 216 296 278 198 183 177 187 195 180 183 194 183 186 191 189 204 213 207 206 202 202 142 177 203 198 220 236 199 193 188 177 198 205 193 180 182 195 190 190 199 192 204 213 209 221 218 224 226 171 168 208 216 228 225 215 212 207 210 219 221 226 232 234 237 246 255 248
220 205 196 187 184 183 179 178 177 162 151 150 171 170 179 213 198 180 206 219 213 184 260 305 175 185 192 198 204 192 193 200 186 189 198 195 202 207 206 205 199 197 167 183 202 192 219 243 179 190 197 177 196 213 191 174 189 198 191 201 209 201 209 230 233 220 199 202 202 177 209 227 222 279 293 237 219 204 201 208 214 227 236 238 245 244 237 235
214 202 192 180 175 176 176 176 171 159 149 152 199 193 197 206 198 177 190 203 189 139 78 4 86 193 203 196 205 207 208 201 184 194 207 204 209 210 210 205 193 197 189 188 217 185 212 237 173 182 201 195 197 202 185 181 188 183 192 206 213 202 197 224 264 225 138 206 206 187 232 254 277 278 257 220 205 205 207 202 201 218 224 223 230 230 222 225
194 192 186 177 172 174 176 173 165 157 146 155 209 211 211 213 198 166 162 196 178 148 133 350 217 207 206 199 204 197 193 186 189 199 199 197 210 209 209 212 190 199 200 193 227 233 192 239 194 178 198 206 197 192 198 201 186 177 199 192 147 107 169 173 230 212 176 225 212 192 219 221 219 251 228 190 194 211 212 207 209 218 219 220 229 229 228 227
181 176 175 176 172 172 175 169 160 154 136 165 211 226 222 214 210 186 172 170 154 154 168 211 211 201 207 213 217 191 179 174 184 196 193 192 212 198 197 208 191 195 203 194 211 254 163 259 256 189 194 197 174 178 211 219 180 159 219 184 144 183 197 174 207 217 209 225 217 208 222 215 204 229 224 192 203 212 209 212 220 224 224 229 233 234 237 234
169 161 166 175 172 172 172 165 154 146 140 183 211 224 208 222 240 219 176 157 119 135 182 214 206 215 239 211 209 196 194 197 186 189 197 192 210 196 189 196 193 193 197 190 192 225 174 222 250 211 189 176 155 177 209 208 172 55 295 216 195 212 204 192 202 222 221 223 222 217 222 208 201 222 224 209 209 205 199 208 217 220 224 228 229 231 236 236
160 151 159 168 169 169 164 155 143 148 178 195 210 212 200 229 250 237 209 196 166 119 193 212 190 208 239 213 201 188 205 220 204 197 206 190 198 210 193 187 188 188 188 188 192 195 182 211 230 257 182 173 177 196 201 198 182 164 195 205 210 213 203 198 211 220 225 227 225 223 227 214 192 213 217 213 209 196 195 204 208 212 219 224 227 230 236 240
146 121 160 163 165 162 154 147 150 170 183 206 211 211 207 212 237 235 229 224 237 257 150 173 174 198 221 209 202 173 173 237 221 212 220 198 202 224 200 188 184 179 178 187 196 195 181 198 211 226 204 197 206 206 202 201 192 190 202 203 205 206 195 208 220 215 221 226 215 226 242 238 210 204 203 203 200 190 196 203 203 210 216 220 228 231 234 236
142 97 159 160 161 156 150 160 178 164 203 212 192 200 205 216 234 216 208 208 231 251 93 116 178 197 212 205 186 170 171 210 229 227 248 222 219 227 201 191 188 179 177 188 200 195 175 166 212 226 230 217 220 214 218 218 202 204 214 208 208 211 202 217 224 199 195 222 208 235 248 240 209 196 195 201 200 190 196 200 198 208 216 219 227 231 232 224
136 54 153 159 160 156 155 192 169 168 221 199 156 198 199 222 226 193 196 200 204 199 170 200 209 210 221 199 168 169 178 200 213 213 239 249 238 248 233 198 189 181 181 192 195 188 171 154 208 231 252 244 247 280 336 321 219 213 219 211 211 212 205 221 234 198 197 210 205 226 240 231 220 205 202 211 208 197 203 202 199 209 216 220 226 228 227 213
110 53 136 158 163 162 166 196 177 192 207 177 191 216 204 223 205 187 199 203 197 179 187 217 222 224 230 180 166 181 178 200 211 205 221 229 234 268 284 241 211 195 186 190 181 176 188 183 194 220 233 232 240 247 267 294 247 224 220 211 211 211 209 223 252 242 226 210 205 220 232 222 228 225 211 219 216 213 223 213 203 210 216 221 227 227 219 207
92 90 31 144 164 171 191 200 175 198 197 184 205 213 208 230 213 192 195 204 207 187 192 216 194 188 195 155 157 184 187 222 234 209 224 231 254 273 292 290 251 223 212 200 180 176 195 188 189 210 217 215 219 220 218 212 208 224 220 209 206 205 207 212 222 228 226 205 205 220 229 228 262 286 241 216 202 209 226 223 211 214 219 220 224 221 209 199
79 106 76 1 33 194 218 225 152 195 192 188 206 209 208 225 230 192 192 211 219 196 197 219 166 154 185 183 190 194 196 226 233 208 210 204 248 256 209 6 298 261 256 237 197 177 191 195 202 212 217 222 225 226 213 191 186 202 213 212 210 208 207 208 218 227 223 221 226 225 218 234 265 263 247 216 199 207 216 218 213 218 225 223 220 218 205 195
171 95 146 164 354 213 215 218 187 181 174 182 196 192 205 220 237 184 197 214 212 194 212 257 166 179 201 197 211 217 191 203 218 216 223 216 230 253 213 154 275 274 279 262 217 193 199 210 214 219 224 228 228 223 187 159 181 200 208 212 213 213 212 213 220 223 217 230 238 219 192 211 236 243 238 216 207 215 212 210 211 212 218 217 210 207 202 198
169 57 153 199 208 194 211 208 189 172 161 175 193 205 206 214 217 211 210 207 180 185 209 246 207 207 208 193 206 227 191 186 212 216 226 229 224 249 261 220 215 237 280 278 233 210 218 222 217 220 227 231 231 229 219 198 199 207 210 213 212 212 214 217 222 222 216 224 234 218 208 214 225 239 241 223 209 219 214 210 215 214 212 208 196 191 194 197
31 25 267 288 277 204 211 186 176 191 190 182 205 230 214 208 211 215 202 123 199 208 202 223 224 215 213 197 194 221 205 188 215 218 215 222 212 211 246 247 220 191 187 254 254 228 221 223 217 218 226 229 229 231 230 222 216 219 219 216 216 215 215 217 221 222 222 227 232 227 225 223 221 234 242 228 211 220 218 204 211 214 207 193 186 190 194 195
7 349 293 324 306 202 195 162 172 201 207 196 215 223 213 215 218 217 192 173 214 213 187 221 231 217 211 206 203 226 224 209 226 227 203 212 217 203 225 245 234 160 144 175 251 278 254 228 220 216 226 233 230 230 231 225 219 224 224 218 220 225 224 222 223 222 224 230 231 231 236 235 227 235 241 230 210 221 228 218 215 214 200 186 190 197 195 194
315 278 280 317 298 173 175 166 173 200 208 207 218 214 210 225 218 203 216 215 217 212 192 219 232 224 210 214 215 232 233 222 233 235 206 203 218 197 212 227 197 166 156 167 200 276 301 270 235 217 222 233 226 224 231 231 227 230 227 217 214 222 227 227 225 222 220 221 224 229 234 234 230 238 243 231 210 217 223 221 220 217 202 191 193 198 200 198
330 284 297 266 247 192 186 174 171 199 208 206 214 211 217 228 193 162 219 235 220 222 215 217 226 220 209 221 223 231 233 228 239 245 216 219 247 227 224 220 184 174 177 173 173 195 208 287 272 227 223 229 220 219 226 229 233 235 226 217 213 214 219 224 228 230 224 218 218 223 226 226 224 228 238 238 224 216 215 215 215 213 206 199 197 198 200 201
Height
782 783 784 785 786 787 789 790 791 792 794 795 796 797 798 799 800 802 803 804 805 806 808 810 811 813 815 815 815 816 818 818 818 818 817 815 816 818 819 819 819 820 820 820 819 819 817 817 817 816 816 816 817 817 815 814 815 820 829 839 842 842 836 828 824 822 821 819 816 816 815 817 819 816 812 812 814 817 818 819 819 819 818 817 816 816 818 822
779 780 781 783 784 785 787 788 789 790 792 793 794 795 796 798 799 800 801 802 803 805 807 808 811 812 814 814 813 815 817 817 817 814 812 813 815 816 817 818 819 820 820 820 820 819 819 820 819 818 818 819 818 817 817 816 816 823 832 840 840 836 829 821 819 818 818 817 815 815 815 815 816 815 813 816 820 819 821 823 822 822 821 820 817 818 820 823
777 778 779 781 782 783 784 785 787 788 789 791 792 793 794 796 797 798 800 801 802 803 805 807 809 810 812 813 812 814 816 817 814 809 807 811 813 814 816 817 818 819 820 821 821 820 821 821 821 821 820 821 820 818 819 818 818 822 830 839 835 828 824 818 817 816 815 814 814 816 815 815 815 813 813 817 822 821 821 823 822 823 823 822 820 820 821 823
774 775 776 778 779 780 782 783 785 786 787 789 790 792 793 794 795 797 798 799 801 802 803 805 807 808 810 811 812 813 816 819 810 802 805 808 810 812 814 815 817 818 819 820 821 821 821 821 822 821 822 823 820 819 821 819 820 822 826 832 828 823 824 818 815 815 814 813 814 816 815 816 814 812 814 817 823 824 820 817 815 817 820 821 821 820 822 823
772 772 774 776 777 778 780 781 782 784 785 787 788 790 791 792 794 795 797 798 799 800 801 803 805 807 809 810 812 812 818 823 806 797 802 804 807 810 811 813 815 817 818 820 821 821 821 821 821 822 823 824 822 822 822 817 818 823 823 824 821 821 824 817 814 814 812 813 814 816 817 815 813 813 814 816 821 821 814 811 809 810 814 816 817 819 821 822
769 770 771 773 775 776 777 779 780 782 783 785 787 788 789 791 792 794 795 796 798 799 800 802 804 806 808 809 811 811 817 816 799 794 799 799 802 806 808 811 813 816 817 819 820 820 821 821 823 824 824 824 824 823 821 816 817 823 823 820 819 819 820 816 814 813 812 814 815 816 816 814 815 815 814 814 815 811 807 806 806 808 810 812 814 817 819 821
767 768 769 771 772 774 775 777 778 780 781 783 784 786 788 789 790 792 793 795 796 797 799 800 803 804 806 808 810 811 811 804 795 795 796 795 798 800 805 809 811 814 816 818 819 820 821 822 825 825 825 826 824 822 819 817 817 823 823 819 817 817 817 814 813 813 812 813 814 813 814 815 817 816 815 814 810 807 805 804 805 806 809 812 814 816 817 818
765 766 767 769 770 771 773 775 776 778 779 781 782 784 786 787 789 790 792 793 794 796 797 799 802 802 804 806 808 811 806 799 795 795 794 794 795 798 803 807 810 813 814 816 817 819 821 822 824 824 826 825 822 821 818 819 820 821 822 818 816 816 814 812 812 813 812 812 812 812 814 814 814 815 815 813 808 805 805 804 805 807 810 813 814 815 815 816
763 764 765 767 767 769 770 772 774 776 778 779 780 782 784 785 787 789 790 792 793 795 795 798 800 800 803 804 808 809 798 793 796 795 794 794 795 798 802 805 808 811 812 814 815 818 819 821 821 821 825 823 820 820 818 822 824 819 818 817 816 815 813 812 813 812 811 812 812 814 816 814 812 814 815 810 805 805 804 805 807 808 811 812 813 814 815 815
761 761 763 764 765 766 768 770 772 774 776 777 778 780 782 784 785 787 789 790 792 794 794 796 799 800 801 801 807 805 792 791 797 795 795 796 797 798 801 804 807 809 811 812 814 816 817 818 818 818 822 821 820 821 819 822 821 815 816 816 816 816 813 813 814 812 812 811 811 814 816 814 813 816 816 808 803 805 805 807 808 808 810 811 811 812 813 814
758 759 761 762 763 764 765 768 769 772 774 775 776 778 780 782 783 785 787 789 791 792 793 794 797 799 798 799 802 798 789 792 794 794 796 797 799 800 800 804 806 808 810 811 813 814 815 816 815 818 822 821 820 821 818 818 816 813 815 817 816 815 814 813 813 814 814 813 810 812 814 814 814 816 814 807 803 804 806 808 809 809 809 809 809 810 811 811
756 757 758 760 762 762 763 765 767 770 772 773 775 776 778 780 782 784 786 788 789 791 791 793 796 796 797 797 794 790 790 792 793 794 796 796 799 801 802 805 806 808 809 810 811 812 814 814 815 819 820 820 822 822 818 814 815 813 815 820 819 816 816 813 812 813 814 813 809 811 819 820 816 813 809 805 803 803 805 806 808 808 808 807 807 808 808 807
754 755 756 758 760 761 761 763 766 768 770 772 773 774 777 779 781 782 784 786 787 789 790 792 794 795 797 794 787 787 790 792 792 792 794 795 797 800 802 805 807 809 809 808 809 809 811 813 815 818 818 820 823 820 816 813 815 815 815 820 823 824 822 812 810 813 813 812 806 812 828 826 814 809 806 804 802 803 805 805 805 807 806 806 806 806 806 805
753 754 754 755 757 759 760 762 764 766 768 770 771 773 775 777 779 781 783 784 786 788 789 791 793 795 795 789 785 788 790 791 792 791 792 794 796 799 801 803 806 808 809 809 808 808 809 812 815 817 818 820 820 817 818 818 817 818 819 821 825 831 825 810 808 812 813 813 805 812 829 824 810 807 804 802 802 803 804 803 803 804 805 805 805 805 804 802
752 752 752 753 755 757 759 761 763 764 766 768 771 772 773 776 778 780 782 783 784 786 788 789 791 792 791 787 785 787 790 790 789 790 792 793 795 797 799 802 804 807 809 810 809 809 809 811 815 819 819 817 819 823 826 824 821 821 826 827 826 829 825 811 807 809 810 811 807 813 827 822 810 805 801 800 801 803 804 802 802 803 802 803 803 802 802 800
750 751 751 752 753 755 758 760 762 763 764 767 770 772 773 775 777 779 781 781 783 784 786 788 787 789 790 785 782 784 787 786 786 790 792 792 794 795 798 801 803 805 807 808 810 809 809 812 816 819 819 819 822 828 832 833 830 824 826 830 826 827 828 818 809 806 805 808 810 813 821 819 808 801 799 799 801 802 803 802 801 802 800 800 800 799 799 798
749 750 750 751 752 754 756 759 761 762 763 766 769 771 772 774 776 779 779 780 781 783 785 785 784 789 788 781 781 782 781 781 784 790 790 791 793 794 797 799 800 803 804 807 808 809 810 812 818 820 820 822 822 827 838 841 836 829 828 830 827 825 827 824 814 806 804 807 811 812 815 813 803 798 798 798 799 801 802 801 799 799 799 797 796 796 795 795
748 749 749 750 752 753 755 757 760 761 763 764 767 769 770 773 776 778 778 779 780 783 786 784 785 791 786 778 780 779 776 778 782 786 788 789 792 793 795 797 798 801 804 807 807 809 813 815 819 822 822 825 824 826 832 829 825 829 830 829 828 825 824 824 816 807 806 809 812 813 815 813 803 798 798 796 798 800 799 798 797 797 796 795 793 793 792 792
748 748 749 750 751 752 754 756 758 761 763 764 766 767 769 772 775 777 777 778 780 782 783 780 780 783 777 772 774 776 775 777 780 782 785 787 790 792 794 796 797 799 803 806 805 805 811 817 821 820 820 821 820 819 817 812 813 820 823 824 826 826 824 822 814 804 804 810 812 813 814 812 806 799 797 795 795 797 797 796 797 796 795 793 792 791 789 789
748 748 748 750 751 752 753 755 757 760 763 764 764 767 770 772 777 779 776 776 775 774 774 774 773 772 771 770 771 774 775 778 779 780 782 784 787 791 795 797 798 798 797 800 802 800 804 816 818 813 811 811 812 812 811 810 810 812 818 822 822 824 823 818 813 804 802 809 810 808 809 809 805 797 793 793 793 795 796 795 795 794 793 792 791 788 787 786
748 748 748 749 751 752 753 755 756 759 763 764 764 766 768 768 773 775 774 775 774 772 773 773 773 772 772 772 772 772 775 779 780 780 782 783 786 792 795 797 799 797 793 796 801 799 802 812 811 805 804 804 807 809 812 813 812 813 817 820 821 823 821 815 812 805 802 809 808 805 807 806 802 796 790 791 793 793 793 792 792 791 789 789 788 787 784 783
748 747 748 749 750 751 753 755 756 758 762 765 764 764 765 764 766 767 769 774 773 772 774 774 775 774 771 773 774 773 774 778 781 780 781 783 786 790 793 796 798 795 793 797 801 803 806 806 798 795 799 803 806 808 811 813 815 817 817 820 823 820 819 816 811 805 804 809 808 805 807 804 798 794 788 787 789 789 787 786 786 786 785 785 785 784 782 781
747 747 748 749 750 751 753 754 756 758 760 763 763 764 765 765 766 765 766 771 771 770 773 773 775 775 773 774 773 774 774 776 778 778 777 780 784 786 789 793 796 794 793 795 795 799 802 795 786 788 795 802 807 809 811 813 815 816 816 821 822 817 819 821 814 808 805 805 806 805 805 801 796 793 788 783 784 785 783 782 781 781 781 780 779 779 779 778
745 747 748 748 749 751 752 755 757 758 759 761 762 763 765 765 766 767 768 771 772 769 769 770 771 771 771 773 772 774 776 774 775 776 774 777 781 783 786 789 793 794 793 791 789 791 789 781 780 788 794 799 805 809 812 815 815 813 813 816 817 815 817 817 813 808 805 804 803 807 812 803 795 797 791 782 782 784 782 780 780 778 777 777 776 776 775 774
744 746 747 748 750 750 752 755 756 757 759 760 761 762 765 765 766 767 770 775 777 772 768 768 769 767 766 771 772 772 775 773 771 771 772 774 776 780 784 785 789 793 791 790 790 789 783 776 782 792 794 796 802 805 808 811 812 810 808 807 810 812 813 813 812 810 814 813 803 809 820 804 789 793 790 782 781 781 780 778 776 775 774 775 775 773 772 771
743 744 746 748 749 750 752 753 754 756 758 759 760 761 764 765 766 768 773 782 781 771 769 769 766 761 759 765 768 772 777 771 765 767 769 771 771 773 780 782 785 787 786 788 790 787 780 776 782 789 792 795 801 802 799 803 812 809 800 799 805 810 812 813 813 813 818 817 804 805 817 805 790 789 785 780 778 775 777 777 772 772 771 771 771 770 769 768
740 742 744 746 747 750 752 750 752 754 756 758 758 761 764 764 767 768 774 788 780 762 765 769 762 755 753 756 762 771 774 763 762 766 765 769 771 769 775 778 780 781 779 787 789 780 776 778 781 784 790 795 797 795 788 794 807 801 790 796 803 806 809 809 813 816 813 812 808 803 809 809 796 786 779 777 778 772 772 773 770 769 768 767 766 765 765 764
738 740 742 744 745 748 749 749 750 752 754 756 756 761 764 764 769 770 779 791 771 749 757 761 754 752 751 753 757 762 761 755 761 766 761 767 771 770 774 773 774 775 773 782 784 772 770 776 777 779 786 789 786 782 779 788 796 789 787 796 797 797 801 805 812 814 810 814 816 806 809 812 793 777 774 774 777 774 767 766 767 766 765 763 761 760 759 759
735 737 739 742 744 746 749 749 749 750 753 754 755 760 762 765 770 772 784 785 754 740 753 751 748 753 753 756 757 756 756 755 759 761 759 766 769 770 773 769 769 773 773 777 777 770 770 772 771 774 781 781 777 776 779 785 787 782 785 792 791 793 799 804 808 811 814 819 816 805 807 811 788 769 774 776 774 770 762 760 760 759 760 758 757 757 755 755
732 733 736 740 742 745 748 749 749 751 752 753 756 758 761 768 771 775 785 772 742 739 751 749 747 750 751 756 759 756 755 755 756 758 759 763 766 769 771 768 770 774 776 779 777 772 769 768 769 771 773 771 770 775 777 779 781 780 785 790 796 801 803 805 806 811 819 817 808 797 796 806 790 761 763 768 761 759 757 757 757 755 756 755 754 754 753 752
728 730 734 737 739 742 745 748 749 751 752 754 756 758 763 770 774 779 776 754 740 746 752 753 752 748 748 752 754 755 756 755 756 759 761 762 763 767 769 770 773 776 779 781 779 776 772 771 773 771 768 765 768 775 775 775 779 782 785 792 802 810 810 813 815 817 819 807 796 788 787 803 792 758 753 756 748 749 751 751 753 753 752 751 750 749 747 745
726 728 731 734 738 740 743 746 748 750 752 754 756 760 765 772 775 775 761 745 748 753 749 752 751 747 750 749 748 752 754 754 755 755 758 762 761 760 761 764 767 771 774 775 776 776 772 769 769 768 766 764 769 777 780 780 785 788 789 794 805 812 811 813 814 811 807 796 784 781 788 797 781 753 750 753 748 747 745 743 745 745 744 744 743 741 738 738
723 725 729 733 736 738 741 745 747 749 751 753 759 762 767 774 770 763 756 750 752 750 745 747 745 745 750 749 746 749 751 751 751 751 753 759 760 756 755 757 757 761 765 769 773 774 770 766 766 770 768 765 766 773 779 782 787 790 789 791 798 803 804 805 802 797 797 790 779 780 789 788 770 749 742 745 745 744 741 740 739 738 738 736 735 735 734 735
721 723 726 730 734 737 741 744 746 748 751 754 760 764 770 773 760 751 755 753 749 750 749 747 744 745 749 748 744 745 750 749 747 749 752 756 759 756 755 756 755 758 764 768 768 769 769 762 759 764 764 760 760 761 763 768 777 779 775 778 783 783 787 789 786 786 786 783 781 787 788 778 763 746 733 733 735 735 738 739 737 737 736 734 733 734 734 734
719 721 725 728 732 735 739 742 744 747 751 755 759 762 767 766 754 750 754 749 746 749 749 747 747 748 747 746 742 741 746 747 745 749 751 751 754 752 750 752 752 755 762 766 762 760 763 754 745 749 750 750 754 753 753 762 775 775 771 776 776 767 769 772 770 770 773 777 782 785 777 760 747 736 730 731 731 730 734 735 735 737 735 734 734 732 731 729
718 721 724 726 729 733 737 740 744 747 751 756 759 758 755 751 746 746 744 740 742 744 745 749 750 747 746 745 746 743 743 744 746 750 750 748 749 747 745 747 747 749 754 758 756 756 758 749 740 744 745 743 746 747 750 756 764 768 769 770 765 758 761 770 770 767 771 775 770 768 766 757 750 738 727 730 733 730 729 728 731 732 730 732 732 727 726 724
716 719 723 725 727 732 735 738 742 746 751 758 760 754 746 741 739 738 736 735 737 737 742 749 747 745 745 744 745 745 744 746 748 748 748 747 745 742 743 743 743 745 747 750 752 752 754 747 738 743 746 741 739 744 749 748 749 758 761 757 760 766 768 773 776 772 776 776 759 751 755 758 759 743 723 727 734 729 726 725 726 727 727 729 727 724 721 718
713 716 721 724 726 730 734 738 742 746 752 760 761 753 744 740 736 733 732 732 734 736 742 747 744 742 743 743 741 741 743 745 745 745 745 745 740 734 736 740 740 742 743 746 752 753 754 752 743 739 741 739 741 750 755 752 752 757 754 748 755 767 769 772 774 768 771 773 758 747 746 747 749 737 723 726 728 724 725 726 724 724 724 723 721 720 717 713
710 715 719 721 724 729 733 737 741 747 754 759 759 753 744 738 734 730 730 731 733 737 741 742 741 741 741 741 739 739 743 740 738 742 742 740 737 729 727 732 735 738 740 745 752 752 753 753 744 738 738 739 745 753 753 751 755 759 757 752 751 753 753 757 759 753 754 760 755 748 744 738 731 721 718 721 718 718 723 723 723 722 719 717 715 714 711 709
708 713 717 718 722 727 731 736 742 749 752 751 749 747 741 736 734 731 730 731 732 735 737 736 738 741 740 741 739 739 743 740 735 738 737 733 732 727 723 725 729 733 737 742 747 750 753 752 745 742 743 740 741 742 739 740 748 754 756 755 751 748 746 747 747 743 743 748 748 746 739 726 714 708 709 713 712 714 716 716 718 717 714 712 709 707 707 707
708 713 716 716 720 725 730 737 741 744 746 744 742 741 738 735 732 730 730 732 732 735 736 735 736 737 736 738 739 739 741 741 739 737 735 731 729 726 721 719 722 727 735 741 742 743 750 750 745 744 744 740 733 727 725 728 734 741 744 742 740 741 744 747 746 742 741 741 737 738 734 716 702 701 702 704 706 707 706 707 710 711 709 708 706 705 705 706
708 713 715 716 719 724 730 735 737 739 742 739 735 735 734 731 731 731 731 731 732 735 738 737 736 736 734 733 735 738 740 739 740 740 736 733 727 720 716 715 716 720 726 733 733 731 736 741 743 740 737 734 728 724 726 726 725 729 731 729 731 736 741 745 743 739 742 741 734 736 734 712 694 695 697 695 697 699 698 700 703 705 704 703 703 703 703 705
709 714 716 717 719 723 729 733 734 737 737 732 729 730 730 730 731 731 730 730 731 732 735 737 735 732 731 730 731 735 739 737 737 738 737 737 731 719 714 714 714 717 721 726 728 728 731 736 740 740 734 730 728 729 733 732 729 727 723 723 727 730 734 738 737 735 737 737 734 739 737 714 693 691 694 692 693 695 697 698 700 701 701 701 700 700 702 705
711 716 720 721 721 723 726 726 726 730 732 731 731 731 729 729 728 728 728 728 728 729 731 733 733 730 730 732 729 730 734 734 734 733 732 736 732 721 719 720 716 715 717 718 720 723 726 730 735 737 736 732 730 731 734 736 736 728 720 720 722 725 732 737 740 741 736 727 726 732 730 712 694 690 692 694 695 697 698 698 699 699 698 698 698 698 701 704
711 716 721 723 723 723 722 719 720 726 730 732 733 732 731 729 725 724 725 725 724 725 726 726 728 727 729 732 732 731 732 731 731 733 734 735 730 721 723 727 724 717 711 708 710 713 716 718 722 725 725 723 719 716 716 721 728 726 718 717 719 722 728 731 734 738 733 723 721 722 718 706 696 692 693 693 695 697 697 697 698 697 694 694 695 696 700 703
710 715 722 725 725 724 722 720 721 724 728 732 733 731 731 729 723 720 723 724 722 722 722 721 724 726 727 729 732 733 733 731 730 732 733 733 729 722 721 727 729 726 718 711 709 710 712 710 708 709 708 703 699 698 697 704 715 721 718 716 715 715 718 723 725 724 723 721 718 714 713 711 704 697 694 694 693 691 690 692 696 696 693 692 693 695 698 700
710 713 719 722 724 724 723 721 722 723 725 730 730 727 726 727 723 722 722 720 718 719 721 721 723 725 725 726 729 730 730 731 731 729 728 726 724 720 720 724 728 726 723 721 716 713 713 708 702 701 699 693 690 692 695 700 707 711 712 712 713 713 714 719 719 714 714 718 714 707 710 714 706 693 691 693 691 686 684 687 689 691 690 689 690 693 696 698
712 713 715 714 716 719 719 718 721 723 724 727 726 722 722 725 725 723 720 717 717 719 720 722 720 719 719 719 723 725 726 729 731 726 723 723 721 719 718 719 720 718 722 725 721 714 712 706 699 698 697 692 690 689 691 696 702 704 704 704 706 709 710 712 712 708 707 709 706 700 702 705 699 690 687 689 688 683 681 682 683 684 685 686 688 691 694 695
715 716 716 714 714 714 713 713 718 723 723 724 725 720 719 722 721 717 715 718 720 716 716 718 715 713 715 715 718 720 720 724 725 720 717 717 718 718 716 712 712 714 721 727 724 717 709 699 692 693 694 691 688 686 686 691 698 699 699 700 700 701 703 702 703 703 701 700 697 696 696 695 692 686 682 683 683 681 681 681 683 683 683 685 687 689 690 691
721 720 719 718 715 714 713 713 715 720 720 721 720 716 715 717 716 714 713 716 717 715 715 714 708 708 713 714 715 714 710 711 712 710 710 711 713 715 712 706 705 711 719 724 724 722 715 699 686 690 695 690 686 688 687 687 692 692 692 696 699 701 702 699 697 697 699 700 697 696 696 693 688 682 679 680 681 681 681 682 682 682 682 683 685 686 686 686
725 723 721 721 716 713 714 714 713 716 717 716 713 710 711 712 711 713 713 709 709 711 711 708 705 709 714 715 716 710 703 703 702 700 703 705 706 708 706 701 702 709 716 720 719 720 719 707 692 691 696 691 686 688 688 688 691 689 686 688 695 701 702 698 695 691 691 694 696 696 697 692 685 681 680 680 681 680 679 679 680 681 681 681 681 682 682 682
725 723 722 722 716 712 713 713 713 713 709 706 706 706 707 707 707 713 713 707 703 703 704 704 705 710 715 715 710 701 696 698 697 697 701 702 701 702 701 700 701 704 710 716 718 717 717 714 703 696 692 686 680 682 686 692 691 682 677 681 685 689 693 693 691 688 684 685 689 690 687 682 678 678 680 680 680 680 678 675 674 676 678 678 677 677 678 678